Volver al catálogo

STARLINK-5953

ActivoComunicacionesVLEO
NORAD 56799·PAYLOAD·🇺🇸 United States

Lanzado May 31, 2023 desde Vandenberg Space Force Base

Loading…

Próximos Pases (próximas 24 horas)

TLE

ActualizadoSource: CelesTrak SupGP

Época: Sep 15, 2026, 02:41 UTC

1 56799C 23078AJ  26258.11229167 -.00032532  00000+0 -27259-2 0  2589
2 56799  70.0014 226.8716 0002986 272.5870  74.6032 14.98353867    15

Sigue STARLINK-5953 en tiempo real con AllMySat

Download on the App Store